Location: El Manguito
(10.2358°N, 67.3634°W)
Time: 09:34:35
(UTC+00:00)

Aurora 2 Rocket - Visible Passes

Search period start: 13 December 2025 00:00
Search period end: 23 December 2025 00:00
Orbit: 385 x 1546 km, 25.0° (Epoch: 12 December)

Date Brightness Start Highest point End Pass type
(mag) Time Alt. Az. Time Alt. Az. Time Alt. Az.
13 Dec 6.1 07:06:34 13° E 07:06:34 13° E 07:07:10 10° E visible
13 Dec 3.5 08:50:55 54° WNW 08:52:17 66° NNW 08:58:00 10° ENE visible
14 Dec 5.7 07:27:18 20° ENE 07:27:18 20° ENE 07:28:59 10° ENE visible
14 Dec 3.9 09:11:38 35° WNW 09:13:49 44° NNW 09:19:19 10° NE visible
15 Dec 5.2 07:47:52 27° ENE 07:47:52 27° ENE 07:50:31 10° ENE visible
15 Dec 4.3 09:32:11 22° WNW 09:35:26 32° NNW 09:40:32 10° NE visible
16 Dec 4.8 08:08:16 34° NE 08:08:16 34° NE 08:11:50 10° NE visible
16 Dec 4.6 09:52:34 14° WNW 09:57:07 25° NNW 10:01:46 10° NE visible
17 Dec 4.6 08:28:31 35° NNE 08:28:31 35° NNE 08:33:05 10° NE visible
17 Dec 4.8 10:13:43 10° WNW 10:18:56 21° NNW 10:23:09 10° NE visible
18 Dec 4.7 08:48:39 32° N 08:48:39 32° N 08:54:20 10° NE visible
19 Dec 6.1 07:24:23 13° NE 07:24:23 13° NE 07:25:03 10° NE visible
19 Dec 4.9 09:08:41 26° NNW 09:10:01 27° NNW 09:15:41 10° NE visible
20 Dec 6.4 01:55:09 10° SSW 01:55:19 10° S 01:55:19 10° S visible
20 Dec 5.8 07:44:19 18° NE 07:44:19 18° NE 07:46:16 10° NE visible
20 Dec 5.0 09:28:37 19° NW 09:31:51 25° N 09:37:14 10° NE visible
21 Dec 5.5 08:04:10 24° NNE 08:04:10 24° NNE 08:07:35 10° NE visible
21 Dec 5.0 09:48:27 14° NW 09:53:43 25° N 09:59:01 10° NE visible
22 Dec 6.0 00:48:01 10° S 00:50:04 13° SSE 00:50:04 13° SSE visible
22 Dec 5.2 08:23:57 28° N 08:23:57 28° N 08:29:03 10° NE visible
22 Dec 4.9 10:08:44 10° NW 10:15:34 28° N 10:20:58 10° ENE visible
